Regional Weather Roundup
Issued by NWS

Home | Current Version | Previous Version | Text Only | Print | Product List | Glossary On
Versions: 1 2 3 4 5 6 7 8 9 10 11 12 13 14 15 16 17 18 19 20 21 22 23 24 25 26 27 28 29 30 31 32 33 34 35 36 37 38 39 40 41 42 43 44 45 46 47 48 49 50
095
ASUS43 KFSD 261410
RWRSD

WEATHER ROUNDUP FOR SOUTH DAKOTA
NATIONAL WEATHER SERVICE SIOUX FALLS SD
800 AM CST SUN FEB 26 2017

NOTE: "FAIR" INDICATES FEW OR NO CLOUDS BELOW 12,000 FEET WITH NO
SIGNIFICANT WEATHER AND/OR OBSTRUCTIONS TO VISIBILITY.


SDZ001>005-009-010-012>017-261500-
NORTHWEST AND NORTH CENTRAL SOUTH DAKOTA

CITY           SKY/WX    TMP DP  RH WIND       PRES   REMARKS
BUFFALO          N/A     18  11  74 W8        29.62R WCI   8
FAITH            N/A     21  16  81 W13       29.71F WCI   9
MOBRIDGE       CLEAR     15   9  76 E7        29.74S WCI   5
$$

SDZ012>016-024>037-041>051-057-063-072>074-261500-
SOUTHWEST AND SOUTH CENTRAL SOUTH DAKOTA

CITY           SKY/WX    TMP DP  RH WIND       PRES   REMARKS
RAPID CTY ARPT CLEAR     18   9  68 W6        29.75R WCI  10
PIERRE         CLEAR     19  16  88 W6        29.79R WCI  11
CUSTER         CLEAR     12   6  77 W7        29.66R WCI   1
ELLSWORTH AFB  CLEAR     19  11  73 W7        29.74R WCI   9
PHILIP         CLEAR     17  12  80 W13       29.78S WCI   4
PINE RIDGE     CLEAR     16   3  56 SW7       29.81S WCI   6
SPEARFISH      FAIR      23   9  54 W8        29.71R WCI  14
WINNER         FAIR      21  11  65 SW8       29.81R WCI  11
$$

SDZ004>011-016>023-039-040-261500-
NORTHEAST SOUTH DAKOTA

CITY           SKY/WX    TMP DP  RH WIND       PRES   REMARKS
ABERDEEN       CLEAR     17  12  80 N13       29.80R WCI   4
WATERTOWN      MOCLDY    23  20  88 NW10      29.74R WCI  12
BROOKINGS      CLEAR     25  22  88 W10       29.76R WCI  15
SISSETON         N/A     17  14  88 N16       29.78R WCI   2
$$

SDZ017-020-022-023-036>040-048>070-261500-
SOUTHEAST SOUTH DAKOTA

CITY           SKY/WX    TMP DP  RH WIND       PRES   REMARKS
SIOUX FALLS    PTCLDY    20  15  81 W9        29.79R WCI   9
HURON          CLEAR     23  21  92 NW6       29.81R WCI  16
CHAMBERLAIN    CLEAR     24  19  83 W7        29.81R WCI  16
MITCHELL       CLEAR     23  19  85 W10       29.83R WCI  12
YANKTON        CLEAR     18   9  68 SW7       29.83R WCI   8
$$

ABBREVIATIONS USED IN REMARKS
   TC - TEMPERATURE IN CELSIUS
  WCI - WIND CHILL INDEX
   HX - HEAT INDEX
  VSB - VISIBILITY





USA.gov is the U.S. government's official web portal to all federal, state and local government web resources and services.